Regional Weather Roundup
Issued by NWS Burlington, VT

Home | Current Version | Previous Version | Text Only | Print | Product List | Glossary On
Versions: 1 2 3 4 5 6 7 8 9 10 11 12 13 14 15 16 17 18 19 20 21 22 23 24 25 26 27 28 29 30 31 32 33 34 35 36 37 38 39 40 41 42 43 44 45 46 47 48 49 50
000
ASUS41 KBTV 301130
RWRBTV
VERMONT REGIONAL WEATHER ROUNDUP
NATIONAL WEATHER SERVICE BURLINGTON VT
600 AM EST FRI JAN 30 2015

NOTE: "FAIR" INDICATES FEW OR NO CLOUDS BELOW 12,000 FEET WITH NO
SIGNIFICANT WEATHER AND/OR OBSTRUCTIONS TO VISIBILITY.

* THESE REPORTS ARE NOT UNDER NWS QUALITY CONTROL AND/OR DO NOT
  REPORT WEATHER SUCH AS PRECIPITATION AND FOG.

VTZ001>019-301200-
_____VERMONT_____


CITY           SKY/WX    TMP DP  RH WIND       PRES   REMARKS
BURLINGTON     LGT SNOW  28  24  85 S10       29.80S FOG     WCI  19
MONTPELIER     LGT SNOW  24  20  84 CALM      29.80S FOG
MORRISVILLE    LGT SNOW N/A N/A N/A CALM      29.80S
ST. JOHNSBURY*   N/A     25  23  92 MISG      29.79F
LYNDONVILLE*   LGT SNOW  25  22  89 SE6       29.79S VSB 1
MIDDLEBURY*    LGT SNOW  28  28 100 CALM      29.79F
RUTLAND*       CLOUDY    25  25 100 CALM      29.78F
SPRINGFIELD    LGT SNOW  24  22  91 CALM      29.82F FOG
HIGHGATE*      LGT SNOW  27  26  94 S3        29.80S
NEWPORT*       LGT SNOW  24  22  93 S3        29.78S
BENNINGTON     CLOUDY    28  26  92 CALM      29.79S FOG
SUTTON*          N/A     21 N/A N/A MISG        N/A
GALLUP MILLS*    N/A     23 N/A N/A MISG        N/A
UNION VILLAGE*   N/A     25 N/A N/A MISG        N/A
MT. MANSFIELD*   N/A     18 N/A N/A CALM        N/A

_____LAKE CHAMPLAIN_____


CITY           SKY/WX    TMP DP  RH WIND       PRES   REMARKS
BURTON ISLAND*   N/A     28  28 100 S13         N/A  WCI  18
COLCHESTER RF*   N/A     30  30 100 SW20        N/A  WCI  18
DIAMOND ISL*     N/A     28  28 100 S8          N/A

$$

NYZ007-026>031-035-052-083-301200-
_____NORTHERN NEW YORK_____


CITY           SKY/WX    TMP DP  RH WIND       PRES   REMARKS
PLATTSBURGH    LGT SNOW  26  25  96 S3        29.80S FOG
SARANAC LAKE   LGT SNOW  22  21  96 W3        29.70R FOG
MASSENA        LGT SNOW  23  22  96 W9        29.84R FOG
OGDENSBURG*    FLURRIES  23  19  86 NW10      29.86R WCI  12
STARK FALLS*     N/A     25 N/A N/A NW5         N/A
WATERTOWN      LGT SNOW  26  20  77 NW15G23   29.88R WCI  14
FT DRUM        FLURRIES  23  20  89 NW6       29.83R
ALBANY         CLOUDY    28  24  85 S7        29.84S
GLENS FALLS    LGT SNOW  27  24  89 SW6       29.82S FOG

$$
NHZ002-005-011-301200-
_____NEW HAMPSHIRE_____


CITY           SKY/WX    TMP DP  RH WIND       PRES   REMARKS
LEBANON        LGT SNOW  26  24  92 CALM      29.81F FOG
KEENE          CLOUDY    27  25  93 CALM      29.82S
MT WASHINGTON  SNOW       9   9 100 SW33        N/A  VSB 0   WCI -15
PLYMOUTH       LGT SNOW  25  25 100 CALM      29.85S
WHITEFIELD     LGT SNOW  27  24  89 CALM      29.78S FOG

$$

_____REGIONAL QUEBEC LOCATIONS_____


CITY           SKY/WX    TMP DP  RH WIND       PRES   REMARKS
MONTREAL       LGT SNOW  27  25  93 S2        29.80R
QUEBEC CITY    LGT SNOW  23  21  93 NE9       29.82S
SHERBROOKE     LGT SNOW  27  25  93 VRB2      29.77F

_____REGIONAL ONTARIO LOCATIONS_____


CITY           SKY/WX    TMP DP  RH WIND       PRES   REMARKS
OTTAWA         FLURRIES  21  18  86 NW16G28   29.86R WCI   7

______KEY______
VSB  - VISIBILITY IN MILES
WCI  - WIND CHILL INDEX
HX   - HEAT INDEX
$$
NNNN


USA.gov is the U.S. government's official web portal to all federal, state and local government web resources and services.